Location: Arcusa
(42.3167°N, 0.0833°W)
Time: 09:13:39
(UTC+00:00)

Cosmos 1844 Rocket - Pass Details

Date: 25 January 2020
Orbit: 824 x 845 km, 71.0° (Epoch: 16 February)

Event Time Altitude Azimuth Distance (km) Brightness Sun altitude
Exits shadow 06:19:07 -1° 337° (NNW) 3,482 5.5 -11.5°
Rises 06:19:21 0° 338° (NNW) 3,393 5.5 -11.5°
Reaches altitude 10° 06:21:50 10° 341° (NNW) 2,458 4.8 -11.0°
Maximum altitude 06:27:26 64° 63° (ENE) 927 3.1 -10.1°
Drops below altitude 10° 06:33:02 10° 145° (SE) 2,455 6.0 -9.1°
Sets 06:35:29 0° 148° (SSE) 3,388 6.7 -8.6°
